Regional Weather Roundup
Issued by NWS San Angelo, TX

Home | Current Version | Previous Version | Text Only | Print | Product List | Glossary On
Versions: 1 2 3 4 5 6 7 8 9 10 11 12 13 14 15 16 17 18 19 20 21 22 23 24 25 26 27 28 29 30 31 32 33 34 35 36 37 38 39 40 41 42 43 44 45 46 47 48 49 50
000
ASUS44 KSJT 031011
RWRSJT
WEST CENTRAL TEXAS REGIONAL WEATHER ROUNDUP
NATIONAL WEATHER SERVICE SAN ANGELO TX
500 AM CDT THU SEP 03 2015

NOTE: "FAIR" INDICATES FEW OR NO CLOUDS BELOW 12,000 FEET WITH NO
SIGNIFICANT WEATHER AND/OR OBSTRUCTIONS TO VISIBILITY.

TXZ049-054-064>066-071>073-076>078-098-099-113-114-127-128-139-140-
154-155-168>170-031100
...LOCATIONS ACROSS WEST CENTRAL TEXAS...

CITY           SKY/WX    TMP DP  RH WIND       PRES   REMARKS
SAN ANGELO     CLEAR     69  59  70 CALM      29.97S
ABILENE        PTCLDY    74  64  71 S12       29.97S
DYESS AFB      PTCLDY    72  62  70 S8        29.96R
JUNCTION       PTCLDY    72  66  81 CALM      29.99R
SWEETWATER     CLEAR     74  59  59 S12       30.01S
BROWNWOOD      CLEAR     66  64  94 E3        29.98S
COLEMAN        MOSUNNY   70  63  78 CALM      29.99S
SONORA         CLEAR     68  61  77 CALM      30.03S
OZONA          FAIR      72  59  64 S10       30.01F
BRADY          CLEAR     72  66  83 SE3       29.98S
$$

TEXAS PANHANDLE/OKLAHOMA PANHANDLE

CITY           SKY/WX    TMP DP  RH WIND       PRES   REMARKS
AMARILLO       PTCLDY    69  55  60 S13       30.01F
BORGER         CLEAR     74  55  51 S12       29.97S
CANADIAN       PTCLDY    72  59  64 SW8       29.94R
DALHART        CLEAR     70  53  54 S13       29.99F
DUMAS          SUNNY     70  53  54 SW13      29.98F
GUYMON         NOT AVBL
HEREFORD       PTSUNNY   67  58  72 SW7       30.03F
PAMPA          SUNNY     68  57  68 S9        30.00R
PERRYTON       CLEAR     71  56  59 S10       29.94R
$$

SOUTHERN PANHANDLE/SOUTH PLAINS/ROLLING PLAINS

CITY           SKY/WX    TMP DP  RH WIND       PRES   REMARKS
LUBBOCK        PTCLDY    70  53  54 SW5       30.01S
SNYDER         CLEAR     71  58  63 S7        29.99S
CHILDRESS      MOCLDY    73  58  59 S8        29.95S
SEMINOLE       SUNNY     66  54  65 SW3       30.02F
$$

PERMIAN BASIN

CITY           SKY/WX    TMP DP  RH WIND       PRES   REMARKS
MIDLAND        CLEAR     70  56  61 S5        29.99S
ODESSA         CLEAR     74  57  55 S9        30.01R
WINK           PTCLDY    68  56  65 E6        29.97S
$$

FAR WEST/SOUTHWEST MOUNTAINS/TRANS PECOS

CITY           SKY/WX    TMP DP  RH WIND       PRES   REMARKS
ALPINE         MOSUNNY   63  54  72 SW7       30.13S
DRYDEN           N/A     72  60  66 VRB5      29.95S
EL PASO        MOCLDY    79  51  37 N10       30.05F
FORT STOCKTON  CLEAR     70  59  68 S9        29.98F
GUADALUPE PASS CLOUDY    72  49  44 W8        30.15F
MARFA          PTCLDY    55  48  76 NW5       30.11F
PECOS          MOSUNNY   67  55  63 E3        29.96R
$$

DALLAS/FORT WORTH METROPLEX

CITY           SKY/WX    TMP DP  RH WIND       PRES   REMARKS
DFW AIRPORT    PTCLDY    77  66  68 S8        29.95S
FTW MEACHAM    CLEAR     77  66  68 SE9       29.95R
DAL-EXECUTIVE  CLEAR     75  66  73 S3        29.95S
GRAND PRAIRIE  CLEAR     76  68  75 SE3       29.97S
ADDISON        CLEAR     76  68  76 S7        29.97F
MESQUITE       SUNNY     71  67  85 CALM      29.96S
LANCASTER      SUNNY     74  63  68 CALM      29.97S
$$

NORTH CENTRAL TEXAS

CITY           SKY/WX    TMP DP  RH WIND       PRES   REMARKS
SHRMAN/DENISON SUNNY     76  68  76 SE9       29.97S
GAINESVILLE    CLEAR     70  64  82 SE3       29.98S
BRIDGEPORT     SUNNY     66  64  93 CALM      29.97S
DENTON         CLEAR     74  66  76 SE7       29.95S
WAXAHACHIE     SUNNY     71  66  84 CALM      29.98S
GRANBURY       SUNNY     74  66  75 E5        29.97S
$$

WESTERN NORTH TEXAS

CITY           SKY/WX    TMP DP  RH WIND       PRES   REMARKS
WICHITA FALLS  CLEAR     71  64  78 S9        29.93F
VERNON         SUNNY     73  57  57 S6        29.95R
BRECKENRIDGE   SUNNY     73  63  71 SE3       29.96S
COMANCHE       CLEAR     70  67  88 SW7       29.98S
$$

CENTRAL AND SOUTH CENTRAL TEXAS

CITY           SKY/WX    TMP DP  RH WIND       PRES   REMARKS
AUSTIN/BERGSTM PTCLDY    70  68  93 CALM      29.95S
WACO           CLEAR     74  68  81 SE6       29.96R
HILLSBORO      SUNNY     72  65  80 SE5       29.96F
TEMPLE         CLEAR     70  64  83 SE6       29.96S
KILLEEN-GRAY   CLEAR     71  67  87 S3        29.96S
FORT HOOD      CLEAR     71  67  89 SE6       29.95S
GEORGETOWN     CLEAR     72  66  83 SE3       29.97S
LAGO VISTA     FAIR      73  69  86 S3        29.98S
SAN MARCOS     CLEAR     72  63  73 E3        29.96S
NEW BRAUNFELS  CLEAR     72  69  90 CALM      29.93F
RANDOLPH AFB   PTCLDY    72  71  96 CALM      29.95R
SAN ANTONIO    MOCLDY    76  72  87 SE3       29.95S
STINSON        CLEAR     75  72  90 E3        29.92F
PLEASANTON     NOT AVBL
LA GRANGE      MOCLDY    74  72  95 CALM      29.93S
GIDDINGS       MOSUNNY   71  69  93 CALM      29.99S
$$

EAST TEXAS

CITY           SKY/WX    TMP DP  RH WIND       PRES   REMARKS
PARIS          CLEAR     72  61  68 E7        29.97S
CLARKSVILLE    NOT AVBL
TYLER          CLEAR     73  67  81 S7        29.98R
LONGVIEW       CLEAR     72  68  87 CALM      29.98R
PALESTINE      MOSUNNY   71  69  95 CALM      29.98F
NACOGDOCHES    MOCLDY    66  64  94 CALM      29.97S
$$

TEXAS HILL COUNTRY AND EDWARDS PLATEAU

CITY           SKY/WX    TMP DP  RH WIND       PRES   REMARKS
LLANO          SUNNY     70  64  83 CALM      30.00S
HORSESHOE BAY  FAIR      71  68  91 CALM      29.97R
KERRVILLE      CLOUDY    72  68  89 CALM      29.99S
FREDERICKSBRG  CLEAR     67  64  89 CALM      29.99S
ROCKSPRINGS    SUNNY     72  68  88 SE9       30.02F
HONDO          MOCLDY    71  67  87 NE5       29.97S
UVALDE         SUNNY     72  69  90 E3        29.96S
DEL RIO        CLEAR     77  68  73 E8        29.91F
$$

SOUTHEAST TEXAS

CITY           SKY/WX    TMP DP  RH WIND       PRES   REMARKS
COLLEGE STN    CLOUDY    74  72  93 E3        29.95S
CALDWELL       SUNNY     72  72 100 CALM      29.98S
CROCKETT       CLOUDY    72  70  94 CALM      30.00S
BRENHAM        CLEAR     73  73  99 CALM      29.95S FOG
HUNTSVILLE     CLEAR     73  71  93 CALM      29.95F
CONROE         FOG       72  71  97 CALM      29.95S VSB 1/2
HOUSTON BUSH   PTCLDY    73  72  96 NE3       29.94S
HOUSTON HOBBY  PTCLDY    77  74  90 CALM      29.93S
PERLAND        PTCLDY    76  74  93 CALM      29.94S
WHARTON        FOG       72  71  98 CALM      29.93S VSB 3/4
$$

THE UPPER TEXAS COAST

CITY           SKY/WX    TMP DP  RH WIND       PRES   REMARKS
ORANGE         CLOUDY   N/A N/A N/A CALM      29.96F FOG
PORT ARTHUR    PTCLDY    77  76  96 E6        29.93F
GALVESTON      PTCLDY    80  75  84 CALM      29.93F
ANGLETON       CLEAR     74  73  97 N3        29.92S
BAY CITY       MOSUNNY   76  76 100 CALM      29.92S
$$

TEXAS COASTAL BEND, RIO GRANDE PLAINS DEEP SOUTH TEXAS

CITY           SKY/WX    TMP DP  RH WIND       PRES   REMARKS
VICTORIA       CLEAR     73  73 100 NE5       29.92S
BEEVILLE       FAIR      73  73 100 CALM      29.91S
ROCKPORT       MOCLDY    77  74  90 S3        29.89S
PORT ARANSAS   MOSUNNY   81  76  84 S8        29.89S
PORT LAVACA    NOT AVBL
CORPUS CHRISTI PTCLDY    76  73  91 CALM      29.89F
KINGSVILLE NAS CLEAR     75  74  96 CALM      29.90S
COTULLA        CLEAR     77  72  84 SE7       29.91F
LAREDO         CLEAR     78  74  87 E7        29.91F
BROWNSVILLE    CLEAR     76  74  93 S3        29.88F
PORT ISABEL    PTCLDY    79  77  94 SE3       29.88F
HEBBRONVILLE   NOT AVBL
MCALLEN        CLEAR     78  75  90 SE5       29.89S
WESLACO        CLEAR     78  74  89 CALM      29.88F
FALFURRIAS     SUNNY     74  73  94 CALM      29.89S
EDINBURG       SUNNY     77  74  90 CALM      29.89S
$$


USA.gov is the U.S. government's official web portal to all federal, state and local government web resources and services.